Location: Beddau
(51.5575°N, 3.3561°W)
Time: 17:56:18
(UTC+00:00)

Cosmos 1271 Rocket - Pass Details

Date: 03 March 2021
Orbit: 498 x 544 km, 81.2° (Epoch: 13 April)

Event Time Altitude Azimuth Distance (km) Brightness Sun altitude
Rises 18:27:40 0° 346° (NNW) 2,604 6.4 -5.5°
Reaches altitude 10° 18:29:47 10° 344° (NNW) 1,715 5.5 -5.8°
Maximum altitude 18:33:32 74° 260° (W) 526 2.9 -6.4°
Drops below altitude 10° 18:37:16 10° 175° (S) 1,708 5.3 -7.0°
Sets 18:39:23 0° 174° (S) 2,592 6.2 -7.3°
